Location: Bittkow
(50.3000°N, 19.0000°E)
Time: 01:48:31
(UTC+00:00)

Cosmos 2228 Rocket - Pass Details

Date: 19 September 2020
Orbit: 619 x 651 km, 82.5° (Epoch: 30 October)

Event Time Altitude Azimuth Distance (km) Brightness Sun altitude
Exits shadow 03:31:11 - 225° (SW) 2,117 5.3 -9.5°
Reaches altitude 10° 03:31:33 10° 227° (SW) 1,984 5.1 -9.4°
Maximum altitude 03:35:27 30° 290° (WNW) 1,113 3.9 -8.8°
Drops below altitude 10° 03:39:23 10° 352° (N) 2,004 5.7 -8.2°
Sets 03:41:51 0° 3° (N) 2,919 6.7 -7.8°
